Time,TemperatureF,DewpointF,PressureIn,WindDirection,WindDirectionDegrees,WindSpeedMPH,WindSpeedGustMPH,Humidity,HourlyPrecipIn,Conditions,Clouds,dailyrainin,SoftwareType,DateUTC
2013-02-05 00:00:00,21.5,5.8,29.91,WNW,295,12.0,16.0,50,0.00,,FEW100,0.00,VWS V14.01,2013-02-05 05:00:00,
2013-02-05 00:05:00,21.4,5.7,29.91,WNW,287,8.0,11.0,50,0.00,,FEW100,0.00,VWS V14.01,2013-02-05 05:05:00,
2013-02-05 00:10:00,21.3,5.6,29.91,WNW,285,5.0,12.0,50,0.00,,FEW100,0.00,VWS V14.01,2013-02-05 05:10:00,
2013-02-05 00:15:00,21.2,5.9,29.91,WNW,290,5.0,15.0,51,0.00,,FEW100,0.00,VWS V14.01,2013-02-05 05:15:00,
2013-02-05 00:20:00,21.2,5.9,29.92,WNW,296,4.0,15.0,51,0.00,,FEW100,0.00,VWS V14.01,2013-02-05 05:20:00,
2013-02-05 00:25:00,21.1,5.8,29.92,West,275,6.0,15.0,51,0.00,,FEW100,0.00,VWS V14.01,2013-02-05 05:25:00,
2013-02-05 00:30:00,21.0,5.7,29.92,WNW,288,4.0,15.0,51,0.00,,FEW100,0.00,VWS V14.01,2013-02-05 05:30:00,
2013-02-05 00:35:00,21.0,5.7,29.92,WNW,288,5.0,12.0,51,0.00,,FEW100,0.00,VWS V14.01,2013-02-05 05:35:00,
2013-02-05 00:40:00,21.0,5.7,29.92,WSW,253,4.0,12.0,51,0.00,,FEW100,0.00,VWS V14.01,2013-02-05 05:40:00,
2013-02-05 00:45:00,21.0,5.7,29.92,WNW,287,9.0,14.0,51,0.00,,FEW100,0.00,VWS V14.01,2013-02-05 05:45:00,
2013-02-05 00:50:00,21.1,5.8,29.92,WNW,294,6.0,14.0,51,0.00,,FEW100,0.00,VWS V14.01,2013-02-05 05:50:00,
2013-02-05 00:55:00,21.1,5.8,29.92,WNW,291,5.0,14.0,51,0.00,,FEW100,0.00,VWS V14.01,2013-02-05 05:55:00,
2013-02-05 01:00:00,21.0,5.7,29.92,SW,226,6.0,14.0,51,0.00,,OVC100,0.00,VWS V14.01,2013-02-05 06:00:00,
2013-02-05 01:05:00,21.1,5.8,29.92,West,281,5.0,11.0,51,0.00,,OVC100,0.00,VWS V14.01,2013-02-05 06:05:00,
2013-02-05 01:10:00,21.1,5.8,29.93,WNW,288,8.0,11.0,51,0.00,,OVC100,0.00,VWS V14.01,2013-02-05 06:10:00,
2013-02-05 01:15:00,21.2,6.3,29.93,WNW,282,4.0,12.0,52,0.00,,OVC100,0.00,VWS V14.01,2013-02-05 06:15:00,
2013-02-05 01:20:00,21.2,6.3,29.93,WNW,282,4.0,12.0,52,0.00,,OVC100,0.00,VWS V14.01,2013-02-05 06:20:00,
2013-02-05 01:25:00,21.2,5.9,29.93,WNW,282,2.0,12.0,51,0.00,,OVC100,0.00,VWS V14.01,2013-02-05 06:25:00,
2013-02-05 01:30:00,21.3,6.0,29.93,West,263,5.0,12.0,51,0.00,,OVC100,0.00,VWS V14.01,2013-02-05 06:30:00,
2013-02-05 01:35:00,21.3,6.4,29.93,WNW,290,2.0,7.0,52,0.00,,OVC100,0.00,VWS V14.01,2013-02-05 06:35:00,
2013-02-05 01:40:00,21.4,6.5,29.93,West,273,2.0,12.0,52,0.00,,OVC100,0.00,VWS V14.01,2013-02-05 06:40:00,
2013-02-05 01:45:00,21.4,6.5,29.94,WNW,289,5.0,12.0,52,0.00,,OVC100,0.00,VWS V14.01,2013-02-05 06:45:00,
2013-02-05 01:50:00,21.5,6.6,29.94,West,277,5.0,12.0,52,0.00,,OVC100,0.00,VWS V14.01,2013-02-05 06:50:00,
2013-02-05 01:55:00,21.5,6.6,29.94,West,268,3.0,14.0,52,0.00,,OVC100,0.00,VWS V14.01,2013-02-05 06:55:00,
2013-02-05 02:00:00,21.5,6.6,29.94,WSW,255,3.0,14.0,52,0.00,,OVC100,0.00,VWS V14.01,2013-02-05 07:00:00,
2013-02-05 02:05:00,21.6,6.7,29.93,West,267,10.0,13.0,52,0.00,,OVC100,0.00,VWS V14.01,2013-02-05 07:05:00,
2013-02-05 02:10:00,21.6,7.1,29.94,WNW,284,4.0,13.0,53,0.00,,OVC100,0.00,VWS V14.01,2013-02-05 07:10:00,
2013-02-05 02:15:00,21.7,7.2,29.94,WNW,287,5.0,13.0,53,0.00,,OVC100,0.00,VWS V14.01,2013-02-05 07:15:00,
2013-02-05 02:20:00,21.7,7.2,29.94,West,281,5.0,13.0,53,0.00,,OVC100,0.00,VWS V14.01,2013-02-05 07:20:00,
2013-02-05 02:25:00,21.8,7.3,29.93,WSW,242,1.0,13.0,53,0.00,,OVC100,0.00,VWS V14.01,2013-02-05 07:25:00,
2013-02-05 02:30:00,21.8,7.3,29.93,West,281,0.0,13.0,53,0.00,,OVC100,0.00,VWS V14.01,2013-02-05 07:30:00,
2013-02-05 02:35:00,21.8,7.7,29.93,WSW,244,5.0,8.0,54,0.00,,OVC100,0.00,VWS V14.01,2013-02-05 07:35:00,
2013-02-05 02:40:00,21.8,7.7,29.93,WSW,242,4.0,11.0,54,0.00,,OVC100,0.00,VWS V14.01,2013-02-05 07:40:00,
2013-02-05 02:45:00,21.8,7.7,29.93,West,261,2.0,11.0,54,0.00,,OVC100,0.00,VWS V14.01,2013-02-05 07:45:00,
2013-02-05 02:50:00,21.8,7.7,29.93,West,279,5.0,14.0,54,0.00,,OVC100,0.00,VWS V14.01,2013-02-05 07:50:00,
2013-02-05 02:55:00,21.9,7.8,29.92,West,267,6.0,14.0,54,0.00,,OVC100,0.00,VWS V14.01,2013-02-05 07:55:00,
2013-02-05 03:00:00,21.9,7.8,29.92,WSW,257,5.0,14.0,54,0.00,,OVC110,0.00,VWS V14.01,2013-02-05 08:00:00,
2013-02-05 03:05:00,21.9,8.2,29.93,WNW,285,8.0,8.0,55,0.00,,OVC110,0.00,VWS V14.01,2013-02-05 08:05:00,
2013-02-05 03:10:00,21.9,7.8,29.93,WSW,256,5.0,13.0,54,0.00,,OVC110,0.00,VWS V14.01,2013-02-05 08:10:00,
2013-02-05 03:15:00,21.9,8.2,29.93,WNW,283,6.0,13.0,55,0.00,,OVC110,0.00,VWS V14.01,2013-02-05 08:15:00,
2013-02-05 03:20:00,21.9,8.2,29.93,WSW,252,5.0,13.0,55,0.00,,OVC110,0.00,VWS V14.01,2013-02-05 08:20:00,
2013-02-05 03:25:00,21.9,8.2,29.93,West,266,4.0,13.0,55,0.00,,OVC110,0.00,VWS V14.01,2013-02-05 08:25:00,
2013-02-05 03:30:00,21.9,7.8,29.94,WNW,286,4.0,13.0,54,0.00,,OVC110,0.00,VWS V14.01,2013-02-05 08:30:00,
2013-02-05 03:35:00,21.9,8.2,29.94,West,281,4.0,12.0,55,0.00,,OVC110,0.00,VWS V14.01,2013-02-05 08:35:00,
2013-02-05 03:40:00,21.9,8.2,29.94,WNW,294,7.0,12.0,55,0.00,,OVC110,0.00,VWS V14.01,2013-02-05 08:40:00,
2013-02-05 03:45:00,21.9,8.2,29.94,WNW,286,7.0,12.0,55,0.00,,OVC110,0.00,VWS V14.01,2013-02-05 08:45:00,
2013-02-05 03:50:00,21.8,8.5,29.94,West,273,2.0,12.0,56,0.00,,OVC110,0.00,VWS V14.01,2013-02-05 08:50:00,
2013-02-05 03:55:00,21.9,8.6,29.94,West,265,3.0,12.0,56,0.00,,OVC110,0.00,VWS V14.01,2013-02-05 08:55:00,
2013-02-05 04:00:00,21.9,8.6,29.94,WNW,291,4.0,12.0,56,0.00,,OVC100,0.00,VWS V14.01,2013-02-05 09:00:00,
2013-02-05 04:05:00,21.9,9.0,29.94,WSW,256,3.0,6.0,57,0.00,,OVC100,0.00,VWS V14.01,2013-02-05 09:05:00,
2013-02-05 04:10:00,21.9,8.6,29.94,SW,234,3.0,7.0,56,0.00,,OVC100,0.00,VWS V14.01,2013-02-05 09:10:00,
2013-02-05 04:15:00,21.9,8.6,29.94,WNW,301,6.0,7.0,56,0.00,,OVC100,0.00,VWS V14.01,2013-02-05 09:15:00,
2013-02-05 04:20:00,22.0,8.7,29.94,West,277,2.0,9.0,56,0.00,,OVC100,0.00,VWS V14.01,2013-02-05 09:20:00,
2013-02-05 04:25:00,22.0,8.7,29.94,WNW,294,5.0,9.0,56,0.00,,OVC100,0.00,VWS V14.01,2013-02-05 09:25:00,
2013-02-05 04:30:00,22.0,8.7,29.94,NW,307,4.0,9.0,56,0.00,,OVC100,0.00,VWS V14.01,2013-02-05 09:30:00,
2013-02-05 04:35:00,22.0,9.1,29.94,WNW,292,4.0,8.0,57,0.00,,OVC100,0.00,VWS V14.01,2013-02-05 09:35:00,
2013-02-05 04:39:00,22.1,8.4,29.94,West,261,5.0,11.0,55,0.00,,OVC100,0.00,VWS V14.01,2013-02-05 09:39:00,
2013-02-05 04:44:00,22.1,8.4,29.94,WNW,283,5.0,11.0,55,0.00,,OVC100,0.00,VWS V14.01,2013-02-05 09:44:00,
2013-02-05 04:49:00,22.1,8.8,29.94,West,280,8.0,11.0,56,0.00,,OVC100,0.00,VWS V14.01,2013-02-05 09:49:00,
2013-02-05 04:54:00,22.1,8.8,29.94,WSW,248,2.0,11.0,56,0.00,,OVC100,0.00,VWS V14.01,2013-02-05 09:54:00,
2013-02-05 04:59:00,22.1,8.4,29.95,West,279,5.0,12.0,55,0.00,,OVC100,0.00,VWS V14.01,2013-02-05 09:59:00,
2013-02-05 05:04:00,22.1,8.8,29.95,West,267,2.0,5.0,56,0.00,,OVC100,0.00,VWS V14.01,2013-02-05 10:04:00,
2013-02-05 05:09:00,22.1,8.8,29.95,West,281,1.0,7.0,56,0.00,,OVC100,0.00,VWS V14.01,2013-02-05 10:09:00,
2013-02-05 05:14:00,22.0,8.3,29.95,WNW,285,7.0,13.0,55,0.00,,OVC100,0.00,VWS V14.01,2013-02-05 10:14:00,
2013-02-05 05:19:00,22.0,8.3,29.95,WNW,286,2.0,13.0,55,0.00,,OVC100,0.00,VWS V14.01,2013-02-05 10:19:00,
2013-02-05 05:24:00,22.0,8.3,29.95,WNW,297,8.0,13.0,55,0.00,,OVC100,0.00,VWS V14.01,2013-02-05 10:24:00,
2013-02-05 05:29:00,22.0,7.9,29.95,WNW,290,4.0,13.0,54,0.00,,OVC100,0.00,VWS V14.01,2013-02-05 10:29:00,
2013-02-05 05:34:00,22.0,8.3,29.95,WNW,286,5.0,8.0,55,0.00,,OVC100,0.00,VWS V14.01,2013-02-05 10:34:00,
2013-02-05 05:39:00,22.0,8.3,29.95,WNW,284,2.0,8.0,55,0.00,,OVC100,0.00,VWS V14.01,2013-02-05 10:39:00,
2013-02-05 05:45:00,21.9,8.2,29.94,WNW,284,0.0,8.0,55,0.00,,OVC100,0.00,VWS V14.01,2013-02-05 10:45:00,
2013-02-05 05:49:00,21.9,7.8,29.94,West,277,2.0,8.0,54,0.00,,OVC100,0.00,VWS V14.01,2013-02-05 10:49:00,
2013-02-05 05:55:00,21.9,8.2,29.94,West,278,5.0,8.0,55,0.00,,OVC100,0.00,VWS V14.01,2013-02-05 10:55:00,
2013-02-05 06:00:00,21.8,8.1,29.95,West,279,2.0,8.0,55,0.00,,OVC100,0.00,VWS V14.01,2013-02-05 11:00:00,
2013-02-05 06:05:00,21.8,8.1,29.95,West,279,2.0,6.0,55,0.00,,OVC100,0.00,VWS V14.01,2013-02-05 11:05:00,
2013-02-05 06:10:00,21.8,8.5,29.95,West,279,2.0,6.0,56,0.00,,OVC100,0.00,VWS V14.01,2013-02-05 11:10:00,
2013-02-05 06:15:00,21.8,8.9,29.96,West,279,2.0,6.0,57,0.00,,OVC100,0.00,VWS V14.01,2013-02-05 11:15:00,
2013-02-05 06:20:00,21.8,8.5,29.96,West,279,4.0,6.0,56,0.00,,OVC100,0.00,VWS V14.01,2013-02-05 11:20:00,
2013-02-05 06:25:00,21.8,8.5,29.96,West,274,2.0,6.0,56,0.00,,OVC100,0.00,VWS V14.01,2013-02-05 11:25:00,
2013-02-05 06:30:00,21.9,9.0,29.96,West,275,2.0,6.0,57,0.00,,OVC100,0.00,VWS V14.01,2013-02-05 11:30:00,
2013-02-05 06:35:00,21.9,9.0,29.96,West,279,6.0,8.0,57,0.00,,OVC100,0.00,VWS V14.01,2013-02-05 11:35:00,
2013-02-05 06:39:00,22.0,8.7,29.96,West,281,5.0,9.0,56,0.00,,OVC100,0.00,VWS V14.01,2013-02-05 11:39:00,
2013-02-05 06:45:00,22.0,8.7,29.96,West,281,4.0,9.0,56,0.00,,OVC100,0.00,VWS V14.01,2013-02-05 11:45:00,
2013-02-05 06:50:00,22.1,8.8,29.97,West,277,4.0,9.0,56,0.00,,OVC100,0.00,VWS V14.01,2013-02-05 11:50:00,
2013-02-05 06:54:00,22.1,8.8,29.97,West,275,2.0,9.0,56,0.00,,OVC100,0.00,VWS V14.01,2013-02-05 11:54:00,
2013-02-05 06:59:00,22.1,8.8,29.97,West,281,2.0,9.0,56,0.00,,OVC100,0.00,VWS V14.01,2013-02-05 11:59:00,
2013-02-05 07:04:00,22.2,8.9,29.97,West,281,0.0,5.0,56,0.00,,OVC095,0.00,VWS V14.01,2013-02-05 12:04:00,
2013-02-05 07:09:00,22.2,8.9,29.97,West,281,5.0,5.0,56,0.00,,OVC095,0.00,VWS V14.01,2013-02-05 12:09:00,
2013-02-05 07:14:00,22.2,8.9,29.98,West,281,1.0,6.0,56,0.00,,OVC095,0.00,VWS V14.01,2013-02-05 12:14:00,
2013-02-05 07:19:00,22.2,8.9,29.98,West,281,2.0,6.0,56,0.00,,OVC095,0.00,VWS V14.01,2013-02-05 12:19:00,
2013-02-05 07:24:00,22.2,8.9,29.97,West,281,4.0,6.0,56,0.00,,OVC095,0.00,VWS V14.01,2013-02-05 12:24:00,
2013-02-05 07:29:00,22.2,8.9,29.97,West,281,2.0,6.0,56,0.00,,OVC095,0.00,VWS V14.01,2013-02-05 12:29:00,
2013-02-05 07:34:00,22.2,8.5,29.98,West,281,4.0,7.0,55,0.00,,OVC095,0.00,VWS V14.01,2013-02-05 12:34:00,
2013-02-05 07:40:00,22.3,9.0,29.98,West,281,0.0,7.0,56,0.00,,OVC095,0.00,VWS V14.01,2013-02-05 12:40:00,
2013-02-05 07:45:00,22.3,9.0,29.99,West,281,1.0,7.0,56,0.00,,OVC095,0.00,VWS V14.01,2013-02-05 12:45:00,
2013-02-05 07:50:00,22.4,9.1,29.99,West,281,0.0,7.0,56,0.00,,OVC095,0.00,VWS V14.01,2013-02-05 12:50:00,
2013-02-05 07:55:00,22.5,9.2,29.99,West,281,5.0,7.0,56,0.00,,OVC095,0.00,VWS V14.01,2013-02-05 12:55:00,
2013-02-05 08:00:00,22.6,9.3,29.99,West,281,0.0,7.0,56,0.00,,OVC090,0.00,VWS V14.01,2013-02-05 13:00:00,
2013-02-05 08:04:00,22.7,9.0,30.00,West,281,1.0,6.0,55,0.00,,OVC090,0.00,VWS V14.01,2013-02-05 13:04:00,
2013-02-05 08:09:00,22.8,9.5,30.00,West,279,4.0,7.0,56,0.00,,OVC090,0.00,VWS V14.01,2013-02-05 13:09:00,
2013-02-05 08:14:00,22.9,9.2,30.00,West,279,2.0,7.0,55,0.00,,OVC090,0.00,VWS V14.01,2013-02-05 13:14:00,
2013-02-05 08:19:00,23.0,9.2,30.01,WNW,282,5.0,7.0,55,0.00,,OVC090,0.00,VWS V14.01,2013-02-05 13:19:00,
2013-02-05 08:24:00,23.1,9.4,30.01,West,278,7.0,8.0,55,0.00,,OVC090,0.00,VWS V14.01,2013-02-05 13:24:00,
2013-02-05 08:29:00,23.1,8.9,30.01,WNW,288,0.0,8.0,54,0.00,,OVC090,0.00,VWS V14.01,2013-02-05 13:29:00,
2013-02-05 08:34:00,23.2,9.4,30.01,WNW,288,2.0,5.0,55,0.00,,OVC090,0.00,VWS V14.01,2013-02-05 13:34:00,
2013-02-05 08:39:00,23.4,9.2,30.00,WNW,288,1.0,5.0,54,0.00,,OVC090,0.00,VWS V14.01,2013-02-05 13:39:00,
2013-02-05 08:44:00,23.5,9.3,30.00,WNW,288,1.0,5.0,54,0.00,,OVC090,0.00,VWS V14.01,2013-02-05 13:44:00,
2013-02-05 08:49:00,23.6,8.6,30.00,West,280,6.0,8.0,52,0.00,,OVC090,0.00,VWS V14.01,2013-02-05 13:49:00,
2013-02-05 08:54:00,23.6,8.6,30.00,NW,319,4.0,8.0,52,0.00,,OVC090,0.00,VWS V14.01,2013-02-05 13:54:00,
2013-02-05 08:59:00,23.8,7.9,30.00,West,278,4.0,8.0,50,0.00,,OVC090,0.00,VWS V14.01,2013-02-05 13:59:00,
2013-02-05 09:04:00,23.7,7.8,30.00,NNW,327,2.0,8.0,50,0.00,,OVC070,0.00,VWS V14.01,2013-02-05 14:04:00,
2013-02-05 09:09:00,23.8,7.9,30.00,WNW,300,4.0,8.0,50,0.00,,OVC070,0.00,VWS V14.01,2013-02-05 14:09:00,
2013-02-05 09:14:00,23.8,7.9,30.00,WNW,296,1.0,8.0,50,0.00,,OVC070,0.00,VWS V14.01,2013-02-05 14:14:00,
2013-02-05 09:19:00,24.0,8.1,30.00,NW,306,6.0,8.0,50,0.00,,OVC070,0.00,VWS V14.01,2013-02-05 14:19:00,
2013-02-05 09:24:00,24.1,7.7,30.00,NW,312,1.0,8.0,49,0.00,,OVC070,0.00,VWS V14.01,2013-02-05 14:24:00,
2013-02-05 09:29:00,24.0,7.6,30.00,West,280,2.0,8.0,49,0.00,,OVC070,0.00,VWS V14.01,2013-02-05 14:29:00,
2013-02-05 09:34:00,24.1,8.2,30.00,NW,325,2.0,6.0,50,0.00,,OVC070,0.00,VWS V14.01,2013-02-05 14:34:00,
2013-02-05 09:39:00,24.3,8.4,30.00,NW,325,2.0,6.0,50,0.00,,OVC070,0.00,VWS V14.01,2013-02-05 14:39:00,
2013-02-05 09:44:00,24.4,8.4,30.00,NW,325,2.0,6.0,50,0.00,,OVC070,0.00,VWS V14.01,2013-02-05 14:44:00,
2013-02-05 09:49:00,24.7,8.3,30.00,NW,325,1.0,6.0,49,0.00,,OVC070,0.00,VWS V14.01,2013-02-05 14:49:00,
2013-02-05 09:54:00,24.9,7.5,30.00,NNW,327,2.0,7.0,47,0.00,,OVC070,0.00,VWS V14.01,2013-02-05 14:54:00,
2013-02-05 09:59:00,25.0,7.6,30.00,NW,314,4.0,7.0,47,0.00,,OVC070,0.00,VWS V14.01,2013-02-05 14:59:00,
2013-02-05 10:04:00,24.9,8.0,30.01,NW,314,2.0,5.0,48,0.00,,OVC070,0.00,VWS V14.01,2013-02-05 15:04:00,
2013-02-05 10:09:00,24.9,8.0,30.01,NW,315,0.0,5.0,48,0.00,,OVC070,0.00,VWS V14.01,2013-02-05 15:09:00,
2013-02-05 10:14:00,24.9,7.5,30.01,NW,315,0.0,5.0,47,0.00,,OVC070,0.00,VWS V14.01,2013-02-05 15:14:00,
2013-02-05 10:19:00,24.9,8.0,30.01,NW,315,1.0,5.0,48,0.00,,OVC070,0.00,VWS V14.01,2013-02-05 15:19:00,
2013-02-05 10:24:00,25.0,8.1,30.01,NW,310,2.0,6.0,48,0.00,,OVC070,0.00,VWS V14.01,2013-02-05 15:24:00,
2013-02-05 10:29:00,24.8,8.4,30.01,NW,309,0.0,6.0,49,0.00,,OVC070,0.00,VWS V14.01,2013-02-05 15:29:00,
2013-02-05 10:34:00,24.9,8.5,30.01,NW,310,2.0,5.0,49,0.00,,OVC070,0.00,VWS V14.01,2013-02-05 15:34:00,
2013-02-05 10:39:00,25.2,8.7,30.01,NW,310,0.0,5.0,49,0.00,,OVC070,0.00,VWS V14.01,2013-02-05 15:39:00,
2013-02-05 10:44:00,25.6,8.6,30.01,WNW,295,6.0,6.0,48,0.00,,OVC070,0.00,VWS V14.01,2013-02-05 15:44:00,
2013-02-05 10:49:00,25.3,8.4,30.00,WNW,294,4.0,7.0,48,0.00,,OVC070,0.00,VWS V14.01,2013-02-05 15:49:00,
2013-02-05 10:54:00,25.2,8.7,30.00,WNW,290,1.0,7.0,49,0.00,,OVC070,0.00,VWS V14.01,2013-02-05 15:54:00,
2013-02-05 10:59:00,25.6,9.1,30.00,WNW,288,0.0,7.0,49,0.00,,OVC070,0.00,VWS V14.01,2013-02-05 15:59:00,
2013-02-05 11:04:00,25.8,8.8,30.00,WNW,288,0.0,6.0,48,0.00,,OVC065,0.00,VWS V14.01,2013-02-05 16:04:00,
2013-02-05 11:09:00,25.8,8.4,30.00,WNW,285,1.0,6.0,47,0.00,,OVC065,0.00,VWS V14.01,2013-02-05 16:09:00,
2013-02-05 11:14:00,25.8,8.8,30.00,WNW,286,0.0,6.0,48,0.00,,OVC065,0.00,VWS V14.01,2013-02-05 16:14:00,
2013-02-05 11:19:00,26.0,9.0,30.00,WNW,286,0.0,6.0,48,0.00,,OVC065,0.00,VWS V14.01,2013-02-05 16:19:00,
2013-02-05 11:24:00,26.1,8.6,30.00,WNW,286,0.0,6.0,47,0.00,,OVC065,0.00,VWS V14.01,2013-02-05 16:24:00,
2013-02-05 11:29:00,26.1,8.6,30.00,West,277,2.0,6.0,47,0.00,,OVC065,0.00,VWS V14.01,2013-02-05 16:29:00,
2013-02-05 11:34:00,26.1,8.6,30.00,West,277,1.0,4.0,47,0.00,,OVC065,0.00,VWS V14.01,2013-02-05 16:34:00,
2013-02-05 11:39:00,26.2,9.2,29.99,West,281,1.0,5.0,48,0.00,,OVC065,0.00,VWS V14.01,2013-02-05 16:39:00,
2013-02-05 11:44:00,26.4,8.9,29.99,NW,306,2.0,6.0,47,0.00,,OVC065,0.00,VWS V14.01,2013-02-05 16:44:00,
2013-02-05 11:49:00,26.6,8.6,29.99,NW,304,1.0,6.0,46,0.00,,OVC065,0.00,VWS V14.01,2013-02-05 16:49:00,
2013-02-05 11:54:00,26.6,8.6,29.99,NW,304,0.0,6.0,46,0.00,,OVC065,0.00,VWS V14.01,2013-02-05 16:54:00,
2013-02-05 11:59:00,26.8,8.8,29.99,NW,304,2.0,6.0,46,0.00,,OVC065,0.00,VWS V14.01,2013-02-05 16:59:00,
2013-02-05 12:04:00,26.6,9.1,29.98,NW,304,0.0,1.0,47,0.00,,OVC060,0.00,VWS V14.01,2013-02-05 17:04:00,
2013-02-05 12:09:00,26.5,9.0,29.98,WSW,244,2.0,5.0,47,0.00,,OVC060,0.00,VWS V14.01,2013-02-05 17:09:00,
2013-02-05 12:14:00,26.5,9.0,29.97,WSW,247,1.0,5.0,47,0.00,,OVC060,0.00,VWS V14.01,2013-02-05 17:14:00,
2013-02-05 12:19:00,26.5,9.0,29.97,WSW,246,4.0,5.0,47,0.00,,OVC060,0.00,VWS V14.01,2013-02-05 17:19:00,
2013-02-05 12:24:00,26.6,9.1,29.97,WSW,242,3.0,5.0,47,0.00,,OVC060,0.00,VWS V14.01,2013-02-05 17:24:00,
2013-02-05 12:29:00,26.4,8.9,29.97,SW,229,2.0,5.0,47,0.00,,OVC060,0.00,VWS V14.01,2013-02-05 17:29:00,
2013-02-05 12:34:00,26.4,8.9,29.97,SW,232,4.0,5.0,47,0.00,,OVC060,0.00,VWS V14.01,2013-02-05 17:34:00,
2013-02-05 12:39:00,26.5,9.0,29.97,SW,227,3.0,6.0,47,0.00,,OVC060,0.00,VWS V14.01,2013-02-05 17:39:00,
2013-02-05 12:44:00,26.5,9.0,29.98,SW,220,5.0,6.0,47,0.00,,OVC060,0.00,VWS V14.01,2013-02-05 17:44:00,
2013-02-05 12:49:00,26.7,9.2,29.98,SW,220,2.0,6.0,47,0.00,,OVC060,0.00,VWS V14.01,2013-02-05 17:49:00,
2013-02-05 12:54:00,26.6,8.6,29.97,SW,220,1.0,6.0,46,0.00,,OVC060,0.00,VWS V14.01,2013-02-05 17:54:00,
2013-02-05 12:59:00,26.5,9.0,29.97,SW,220,0.0,6.0,47,0.00,,OVC060,0.00,VWS V14.01,2013-02-05 17:59:00,
2013-02-05 13:04:00,27.0,9.5,29.97,SW,220,0.0,3.0,47,0.00,,OVC060,0.00,VWS V14.01,2013-02-05 18:04:00,
2013-02-05 13:09:00,27.5,9.0,29.96,SW,220,3.0,4.0,45,0.00,,OVC060,0.00,VWS V14.01,2013-02-05 18:09:00,
2013-02-05 13:14:00,27.4,8.9,29.96,SW,220,0.0,4.0,45,0.00,,OVC060,0.00,VWS V14.01,2013-02-05 18:14:00,
2013-02-05 13:19:00,27.6,9.5,29.96,SW,220,0.0,4.0,46,0.00,,OVC060,0.00,VWS V14.01,2013-02-05 18:19:00,
2013-02-05 13:24:00,27.9,9.3,29.96,SW,220,0.0,4.0,45,0.00,,OVC060,0.00,VWS V14.01,2013-02-05 18:24:00,
2013-02-05 13:29:00,28.2,10.1,29.96,SW,220,3.0,4.0,46,0.00,,OVC060,0.00,VWS V14.01,2013-02-05 18:29:00,
2013-02-05 13:34:00,28.3,9.7,29.96,SW,220,0.0,3.0,45,0.00,,OVC060,0.00,VWS V14.01,2013-02-05 18:34:00,
2013-02-05 13:39:00,28.3,11.6,29.96,SW,217,2.0,4.0,49,0.00,,OVC060,0.00,VWS V14.01,2013-02-05 18:39:00,
2013-02-05 13:44:00,28.3,10.7,29.95,SSW,201,2.0,5.0,47,0.00,,OVC060,0.00,VWS V14.01,2013-02-05 18:44:00,
2013-02-05 13:49:00,27.9,10.8,29.95,SSW,196,1.0,5.0,48,0.00,,OVC060,0.00,VWS V14.01,2013-02-05 18:49:00,
2013-02-05 13:54:00,27.8,11.1,29.95,ESE,115,1.0,9.0,49,0.00,,OVC060,0.00,VWS V14.01,2013-02-05 18:54:00,
2013-02-05 13:59:00,27.6,11.4,29.95,SE,129,5.0,9.0,50,0.00,,OVC060,0.00,VWS V14.01,2013-02-05 18:59:00,
2013-02-05 14:04:00,27.4,11.2,29.95,ESE,119,4.0,8.0,50,0.00,,OVC055,0.00,VWS V14.01,2013-02-05 19:04:00,
2013-02-05 14:09:00,27.3,10.7,29.96,East,93,5.0,8.0,49,0.00,,OVC055,0.00,VWS V14.01,2013-02-05 19:09:00,
2013-02-05 14:14:00,27.1,11.4,29.96,ESE,102,2.0,8.0,51,0.00,,OVC055,0.00,VWS V14.01,2013-02-05 19:14:00,
2013-02-05 14:19:00,27.0,11.3,29.96,SSE,161,6.0,8.0,51,0.00,,OVC055,0.00,VWS V14.01,2013-02-05 19:19:00,
2013-02-05 14:24:00,26.9,11.2,29.96,SE,125,6.0,8.0,51,0.00,,OVC055,0.00,VWS V14.01,2013-02-05 19:24:00,
2013-02-05 14:29:00,26.8,11.1,29.96,SE,127,2.0,8.0,51,0.00,,OVC055,0.00,VWS V14.01,2013-02-05 19:29:00,
2013-02-05 14:34:00,27.0,10.9,29.96,SE,144,6.0,7.0,50,0.00,,OVC055,0.00,VWS V14.01,2013-02-05 19:34:00,
2013-02-05 14:39:00,27.1,10.9,29.96,ESE,123,5.0,7.0,50,0.00,,OVC055,0.00,VWS V14.01,2013-02-05 19:39:00,
2013-02-05 14:44:00,27.2,11.5,29.96,SE,128,1.0,7.0,51,0.00,,OVC055,0.00,VWS V14.01,2013-02-05 19:44:00,
2013-02-05 14:49:00,27.3,11.6,29.96,SSE,165,7.0,7.0,51,0.00,,OVC055,0.00,VWS V14.01,2013-02-05 19:49:00,
2013-02-05 14:54:00,27.3,11.6,29.95,SSE,155,2.0,7.0,51,0.00,,OVC055,0.00,VWS V14.01,2013-02-05 19:54:00,
2013-02-05 14:59:00,27.4,11.7,29.95,SE,137,2.0,7.0,51,0.00,,OVC055,0.00,VWS V14.01,2013-02-05 19:59:00,
2013-02-05 15:04:00,27.6,11.9,29.95,SE,130,0.0,7.0,51,0.00,,OVC050,0.00,VWS V14.01,2013-02-05 20:04:00,
2013-02-05 15:09:00,27.7,12.4,29.95,ESE,104,1.0,7.0,52,0.00,,OVC050,0.00,VWS V14.01,2013-02-05 20:09:00,
2013-02-05 15:14:00,27.8,12.0,29.95,SSE,149,4.0,9.0,51,0.00,,OVC050,0.00,VWS V14.01,2013-02-05 20:14:00,
2013-02-05 15:19:00,27.6,11.4,29.95,SSE,165,6.0,9.0,50,0.00,,OVC050,0.00,VWS V14.01,2013-02-05 20:19:00,
2013-02-05 15:24:00,27.4,11.7,29.95,SSE,159,2.0,9.0,51,0.00,,OVC050,0.00,VWS V14.01,2013-02-05 20:24:00,
2013-02-05 15:29:00,27.5,12.2,29.95,SE,136,4.0,9.0,52,0.00,,OVC050,0.00,VWS V14.01,2013-02-05 20:29:00,
2013-02-05 15:34:00,27.4,11.7,29.94,SE,137,6.0,8.0,51,0.00,,OVC050,0.00,VWS V14.01,2013-02-05 20:34:00,
2013-02-05 15:39:00,27.1,12.2,29.94,SE,136,4.0,8.0,53,0.00,,OVC050,0.00,VWS V14.01,2013-02-05 20:39:00,
2013-02-05 15:44:00,27.0,12.6,29.94,SE,126,5.0,8.0,54,0.00,,OVC050,0.00,VWS V14.01,2013-02-05 20:44:00,
2013-02-05 15:49:00,27.0,11.7,29.94,ESE,121,0.0,8.0,52,0.00,,OVC050,0.00,VWS V14.01,2013-02-05 20:49:00,
2013-02-05 15:54:00,26.9,12.1,29.94,ESE,113,2.0,8.0,53,0.00,,OVC050,0.00,VWS V14.01,2013-02-05 20:54:00,
2013-02-05 15:59:00,27.0,12.2,29.94,SE,134,4.0,8.0,53,0.00,,OVC050,0.00,VWS V14.01,2013-02-05 20:59:00,
2013-02-05 16:04:00,26.9,12.1,29.93,ESE,119,4.0,6.0,53,0.00,,OVC170,0.00,VWS V14.01,2013-02-05 21:04:00,
2013-02-05 16:09:00,26.8,12.4,29.93,ESE,122,4.0,7.0,54,0.00,,OVC170,0.00,VWS V14.01,2013-02-05 21:09:00,
2013-02-05 16:14:00,26.8,12.8,29.93,ESE,117,2.0,7.0,55,0.00,,OVC170,0.00,VWS V14.01,2013-02-05 21:14:00,
2013-02-05 16:19:00,26.9,12.9,29.93,SE,124,2.0,7.0,55,0.00,,OVC170,0.00,VWS V14.01,2013-02-05 21:19:00,
2013-02-05 16:24:00,26.8,13.2,29.93,SE,127,2.0,8.0,56,0.00,,OVC170,0.00,VWS V14.01,2013-02-05 21:24:00,
2013-02-05 16:29:00,26.9,13.3,29.93,ESE,123,1.0,8.0,56,0.00,,OVC170,0.00,VWS V14.01,2013-02-05 21:29:00,
2013-02-05 16:34:00,26.9,13.7,29.93,SE,130,6.0,7.0,57,0.00,,OVC170,0.00,VWS V14.01,2013-02-05 21:34:00,
2013-02-05 16:39:00,26.9,13.3,29.93,SE,125,2.0,8.0,56,0.00,,OVC170,0.00,VWS V14.01,2013-02-05 21:39:00,
2013-02-05 16:44:00,26.9,13.3,29.93,SE,125,1.0,8.0,56,0.00,,OVC170,0.00,VWS V14.01,2013-02-05 21:44:00,
2013-02-05 16:49:00,26.9,13.7,29.93,SE,128,1.0,8.0,57,0.00,,OVC170,0.00,VWS V14.01,2013-02-05 21:49:00,
2013-02-05 16:54:00,26.9,13.7,29.93,SE,130,4.0,8.0,57,0.00,,OVC170,0.00,VWS V14.01,2013-02-05 21:54:00,
2013-02-05 16:59:00,26.9,13.7,29.94,SE,136,2.0,8.0,57,0.00,,OVC170,0.00,VWS V14.01,2013-02-05 21:59:00,
2013-02-05 17:04:00,26.9,13.7,29.94,SE,142,4.0,6.0,57,0.00,,OVC170,0.00,VWS V14.01,2013-02-05 22:04:00,
2013-02-05 17:09:00,26.9,14.1,29.94,SE,144,4.0,6.0,58,0.00,,OVC170,0.00,VWS V14.01,2013-02-05 22:09:00,
2013-02-05 17:14:00,26.9,14.1,29.94,SE,144,5.0,6.0,58,0.00,,OVC170,0.00,VWS V14.01,2013-02-05 22:14:00,
2013-02-05 17:19:00,26.9,14.5,29.94,SE,144,0.0,6.0,59,0.00,,OVC170,0.00,VWS V14.01,2013-02-05 22:19:00,
2013-02-05 17:24:00,27.0,14.2,29.94,SE,141,2.0,6.0,58,0.00,,OVC170,0.00,VWS V14.01,2013-02-05 22:24:00,
2013-02-05 17:29:00,27.0,14.2,29.94,SE,140,2.0,6.0,58,0.00,,OVC170,0.00,VWS V14.01,2013-02-05 22:29:00,
2013-02-05 17:34:00,27.0,14.6,29.94,SE,140,2.0,4.0,59,0.00,,OVC170,0.00,VWS V14.01,2013-02-05 22:34:00,
2013-02-05 17:39:00,27.0,14.6,29.93,SE,140,4.0,5.0,59,0.00,,OVC170,0.00,VWS V14.01,2013-02-05 22:39:00,
2013-02-05 17:44:00,27.0,14.6,29.93,SE,140,0.0,5.0,59,0.00,,OVC170,0.00,VWS V14.01,2013-02-05 22:44:00,
2013-02-05 17:49:00,27.1,14.7,29.93,SE,142,2.0,5.0,59,0.00,,OVC170,0.00,VWS V14.01,2013-02-05 22:49:00,
2013-02-05 17:54:00,27.1,15.1,29.93,SE,142,2.0,5.0,60,0.00,,OVC170,0.00,VWS V14.01,2013-02-05 22:54:00,
2013-02-05 17:59:00,27.1,15.4,29.93,SE,142,1.0,5.0,61,0.00,,OVC170,0.00,VWS V14.01,2013-02-05 22:59:00,
2013-02-05 18:04:00,27.2,15.9,29.93,SE,142,4.0,7.0,62,0.00,,OVC170,0.00,VWS V14.01,2013-02-05 23:04:00,
2013-02-05 18:09:00,27.3,16.0,29.94,SE,143,4.0,7.0,62,0.00,,OVC170,0.00,VWS V14.01,2013-02-05 23:09:00,
2013-02-05 18:14:00,27.4,16.1,29.94,SE,146,1.0,7.0,62,0.00,,OVC170,0.00,VWS V14.01,2013-02-05 23:14:00,
2013-02-05 18:19:00,27.4,16.1,29.94,SE,146,2.0,7.0,62,0.00,,OVC170,0.00,VWS V14.01,2013-02-05 23:19:00,
2013-02-05 18:24:00,27.5,16.6,29.94,SE,146,4.0,7.0,63,0.00,,OVC170,0.00,VWS V14.01,2013-02-05 23:24:00,
2013-02-05 18:29:00,27.6,16.7,29.94,SSE,163,1.0,8.0,63,0.00,,OVC170,0.00,VWS V14.01,2013-02-05 23:29:00,
2013-02-05 18:34:00,27.6,16.7,29.94,SSE,154,2.0,7.0,63,0.00,,OVC170,0.00,VWS V14.01,2013-02-05 23:34:00,
2013-02-05 18:39:00,27.7,17.1,29.95,SSE,154,0.0,7.0,64,0.00,,OVC170,0.00,VWS V14.01,2013-02-05 23:39:00,
2013-02-05 18:44:00,27.8,17.6,29.95,SSE,154,1.0,7.0,65,0.00,,OVC170,0.00,VWS V14.01,2013-02-05 23:44:00,
2013-02-05 18:49:00,27.9,17.7,29.94,SSE,154,1.0,7.0,65,0.00,,OVC170,0.00,VWS V14.01,2013-02-05 23:49:00,
2013-02-05 18:54:00,28.0,18.1,29.94,SSE,154,1.0,7.0,66,0.00,,OVC170,0.00,VWS V14.01,2013-02-05 23:54:00,
2013-02-05 18:59:00,28.0,18.1,29.94,SSE,147,5.0,7.0,66,0.00,,OVC170,0.00,VWS V14.01,2013-02-05 23:59:00,
2013-02-05 19:04:00,28.1,18.2,29.94,SE,145,0.0,6.0,66,0.00,,OVC050,0.00,VWS V14.01,2013-02-06 00:04:00,
2013-02-05 19:09:00,28.1,18.2,29.94,SE,146,2.0,6.0,66,0.00,,OVC050,0.00,VWS V14.01,2013-02-06 00:09:00,
2013-02-05 19:14:00,28.2,18.7,29.94,SSE,148,1.0,6.0,67,0.00,,OVC050,0.00,VWS V14.01,2013-02-06 00:14:00,
2013-02-05 19:19:00,28.2,18.7,29.94,SSE,148,2.0,6.0,67,0.00,,OVC050,0.00,VWS V14.01,2013-02-06 00:19:00,
2013-02-05 19:24:00,28.3,18.8,29.94,SSE,155,5.0,8.0,67,0.00,,OVC050,0.00,VWS V14.01,2013-02-06 00:24:00,
2013-02-05 19:29:00,28.3,18.8,29.94,SSE,155,4.0,8.0,67,0.00,,OVC050,0.00,VWS V14.01,2013-02-06 00:29:00,
2013-02-05 19:34:00,28.4,18.9,29.94,SSE,155,5.0,7.0,67,0.00,,OVC050,0.00,VWS V14.01,2013-02-06 00:34:00,
2013-02-05 19:39:00,28.4,18.9,29.94,SSE,155,5.0,7.0,67,0.00,,OVC050,0.00,VWS V14.01,2013-02-06 00:39:00,
2013-02-05 19:44:00,28.4,18.9,29.94,SE,128,4.0,9.0,67,0.00,,,0.00,VWS V14.01,2013-02-06 00:44:00,
2013-02-05 19:49:00,28.5,19.0,29.94,SE,134,2.0,9.0,67,0.00,,,0.00,VWS V14.01,2013-02-06 00:49:00,
2013-02-05 19:54:00,28.6,19.0,29.93,SE,138,1.0,9.0,67,0.00,,,0.00,VWS V14.01,2013-02-06 00:54:00,
2013-02-05 19:59:00,28.5,19.3,29.94,SSE,158,5.0,9.0,68,0.00,,,0.00,VWS V14.01,2013-02-06 00:59:00,
2013-02-05 20:04:00,28.2,19.7,29.94,SSE,153,7.0,11.0,70,0.00,,,0.00,VWS V14.01,2013-02-06 01:04:00,
2013-02-05 20:09:00,28.0,20.2,29.94,ESE,121,2.0,11.0,72,0.00,,,0.00,VWS V14.01,2013-02-06 01:09:00,
2013-02-05 20:14:00,27.8,20.6,29.94,SSE,150,5.0,11.0,74,0.00,,,0.00,VWS V14.01,2013-02-06 01:14:00,
2013-02-05 20:19:00,27.6,21.0,29.94,SSE,151,7.0,11.0,76,0.00,,,0.00,VWS V14.01,2013-02-06 01:19:00,
2013-02-05 20:24:00,27.4,21.1,29.94,SSE,147,4.0,11.0,77,0.00,,,0.00,VWS V14.01,2013-02-06 01:24:00,
2013-02-05 20:29:00,27.3,21.7,29.94,South,172,2.0,11.0,79,0.00,,,0.00,VWS V14.01,2013-02-06 01:29:00,
2013-02-05 20:34:00,27.2,21.9,29.94,SSE,163,2.0,6.0,80,0.00,,,0.00,VWS V14.01,2013-02-06 01:34:00,
2013-02-05 20:39:00,27.1,22.1,29.94,SSE,163,4.0,7.0,81,0.00,,,0.00,VWS V14.01,2013-02-06 01:39:00,
2013-02-05 20:44:00,27.1,22.4,29.94,SSE,161,1.0,7.0,82,0.00,,,0.00,VWS V14.01,2013-02-06 01:44:00,
2013-02-05 20:49:00,27.0,22.5,29.94,SSE,161,2.0,7.0,83,0.00,,,0.00,VWS V14.01,2013-02-06 01:49:00,
2013-02-05 20:54:00,27.1,22.9,29.94,SSE,161,4.0,7.0,84,0.00,,,0.00,VWS V14.01,2013-02-06 01:54:00,
2013-02-05 20:59:00,27.0,23.1,29.94,SSE,161,1.0,7.0,85,0.00,,,0.00,VWS V14.01,2013-02-06 01:59:00,
2013-02-05 21:04:00,27.0,23.1,29.95,SSE,161,0.0,4.0,85,0.00,,,0.00,VWS V14.01,2013-02-06 02:04:00,
2013-02-05 21:09:00,27.1,23.5,29.95,SSE,161,0.0,4.0,86,0.00,,,0.00,VWS V14.01,2013-02-06 02:09:00,
2013-02-05 21:14:00,27.1,23.5,29.95,SSE,161,0.0,4.0,86,0.00,,,0.00,VWS V14.01,2013-02-06 02:14:00,
2013-02-05 21:19:00,27.1,23.5,29.95,SSE,161,0.0,4.0,86,0.00,,,0.00,VWS V14.01,2013-02-06 02:19:00,
2013-02-05 21:24:00,27.1,23.8,29.95,SSE,161,1.0,4.0,87,0.00,,,0.00,VWS V14.01,2013-02-06 02:24:00,
2013-02-05 21:29:00,27.0,23.6,29.94,SSE,161,0.0,4.0,87,0.00,,,0.00,VWS V14.01,2013-02-06 02:29:00,
2013-02-05 21:34:00,27.0,23.6,29.94,SSE,161,0.0,0.0,87,0.00,,,0.00,VWS V14.01,2013-02-06 02:34:00,
2013-02-05 21:39:00,27.1,23.8,29.94,SSE,161,0.0,0.0,87,0.00,,,0.00,VWS V14.01,2013-02-06 02:39:00,
2013-02-05 21:44:00,27.2,23.9,29.94,SSE,161,0.0,2.0,87,0.00,,,0.00,VWS V14.01,2013-02-06 02:44:00,
2013-02-05 21:49:00,27.2,24.1,29.94,SSE,161,1.0,2.0,88,0.00,,,0.00,VWS V14.01,2013-02-06 02:49:00,
2013-02-05 21:54:00,27.2,24.1,29.94,SSE,161,2.0,4.0,88,0.00,,,0.00,VWS V14.01,2013-02-06 02:54:00,
2013-02-05 21:59:00,27.2,24.1,29.94,SSE,161,0.0,4.0,88,0.00,,,0.00,VWS V14.01,2013-02-06 02:59:00,
2013-02-05 22:04:00,27.2,24.1,29.94,SSE,161,1.0,1.0,88,0.00,,,0.00,VWS V14.01,2013-02-06 03:04:00,
2013-02-05 22:09:00,27.2,24.1,29.94,SSE,161,2.0,2.0,88,0.00,,,0.00,VWS V14.01,2013-02-06 03:09:00,
2013-02-05 22:14:00,27.3,24.2,29.93,SSE,161,0.0,2.0,88,0.00,,,0.00,VWS V14.01,2013-02-06 03:14:00,
2013-02-05 22:19:00,27.3,24.2,29.93,SSE,161,0.0,2.0,88,0.00,,,0.00,VWS V14.01,2013-02-06 03:19:00,
2013-02-05 22:24:00,27.2,24.1,29.93,SSE,161,0.0,4.0,88,0.00,,,0.00,VWS V14.01,2013-02-06 03:24:00,
2013-02-05 22:29:00,27.1,24.0,29.93,SSE,161,2.0,4.0,88,0.00,,,0.00,VWS V14.01,2013-02-06 03:29:00,
2013-02-05 22:34:00,27.1,24.0,29.93,SSE,161,1.0,4.0,88,0.00,,,0.00,VWS V14.01,2013-02-06 03:34:00,
2013-02-05 22:39:00,27.0,23.9,29.93,SSE,161,0.0,4.0,88,0.00,,,0.00,VWS V14.01,2013-02-06 03:39:00,
2013-02-05 22:44:00,26.9,23.8,29.93,SSE,161,4.0,4.0,88,0.00,,,0.00,VWS V14.01,2013-02-06 03:44:00,
2013-02-05 22:49:00,26.9,23.8,29.92,SSE,161,1.0,4.0,88,0.00,,,0.00,VWS V14.01,2013-02-06 03:49:00,
2013-02-05 22:54:00,26.9,23.8,29.92,SSE,161,1.0,5.0,88,0.00,,,0.00,VWS V14.01,2013-02-06 03:54:00,
2013-02-05 22:59:00,26.8,23.7,29.92,SSE,161,1.0,5.0,88,0.00,,,0.00,VWS V14.01,2013-02-06 03:59:00,
2013-02-05 23:04:00,26.8,23.7,29.92,SSE,161,0.0,2.0,88,0.00,,,0.00,VWS V14.01,2013-02-06 04:04:00,
2013-02-05 23:09:00,26.8,24.0,29.92,SSE,161,0.0,2.0,89,0.00,,,0.00,VWS V14.01,2013-02-06 04:09:00,
2013-02-05 23:14:00,26.8,24.0,29.92,SSE,161,2.0,4.0,89,0.00,,,0.00,VWS V14.01,2013-02-06 04:14:00,
2013-02-05 23:19:00,26.8,24.0,29.92,SSE,161,0.0,4.0,89,0.00,,,0.00,VWS V14.01,2013-02-06 04:19:00,
2013-02-05 23:24:00,26.7,23.9,29.92,SSE,161,1.0,4.0,89,0.00,,,0.00,VWS V14.01,2013-02-06 04:24:00,
2013-02-05 23:29:00,26.7,23.9,29.92,SSE,161,0.0,4.0,89,0.00,,,0.00,VWS V14.01,2013-02-06 04:29:00,
2013-02-05 23:34:00,26.8,24.0,29.92,SSE,161,0.0,1.0,89,0.00,,,0.00,VWS V14.01,2013-02-06 04:34:00,
2013-02-05 23:39:00,26.8,24.0,29.92,SSE,161,0.0,1.0,89,0.00,,,0.00,VWS V14.01,2013-02-06 04:39:00,
2013-02-05 23:44:00,26.9,24.1,29.92,SSE,161,1.0,1.0,89,0.00,,,0.00,VWS V14.01,2013-02-06 04:44:00,
2013-02-05 23:49:00,26.9,24.1,29.92,SSE,161,0.0,4.0,89,0.00,,,0.00,VWS V14.01,2013-02-06 04:49:00,
2013-02-05 23:54:00,27.0,24.2,29.92,SSE,161,0.0,4.0,89,0.00,,,0.00,VWS V14.01,2013-02-06 04:54:00,
2013-02-05 23:59:00,27.0,24.2,29.92,SSE,161,1.0,4.0,89,0.00,,,0.00,VWS V14.01,2013-02-06 04:59:00,